N6EQ Weather Reports


time (UTC)temp
F
wind
direction
speed
knots
gust
knots
rain 1hr
in
rain 24hr
in
rain mn
in
humidity
%
barometer
mb
20260510071533 88 131 0.0 0.9 0.00 0.00 0.00 11 947.2
20260510070022 89 254 0.0 3.5 0.00 0.00 0.00 11 947.2
20260510064521 88 230 0.0 7.0 0.00 0.00 0.00 11 947.0
20260510063022 89 113 4.3 7.8 0.00 0.00 0.00 11 946.9
20260510061520 89 99 5.2 7.8 0.00 0.00 0.00 11 946.8
20260510060034 89 99 3.5 7.0 0.00 0.00 0.00 11 946.9
20260510054527 90 105 6.1 8.7 0.00 0.00 0.00 11 946.8
20260510053019 91 110 6.1 8.7 0.00 0.00 0.00 11 946.7
20260510051518 91 106 5.2 7.0 0.00 0.00 0.00 11 946.8
20260510050017 92 120 4.3 6.1 0.00 0.00 0.00 11 946.7
20260510044517 92 110 2.6 4.3 0.00 0.00 0.00 11 946.6
20260510043017 93 140 0.0 1.7 0.00 0.00 0.00 12 946.5
20260510041517 91 301 0.0 2.6 0.00 0.00 0.00 12 946.4
20260510040015 93 0.9 2.6 0.00 0.00 0.00 12 946.3
20260510034521 94 0.0 0.0 0.00 0.00 0.00 11 946.1
20260510033015 95 0.9 1.7 0.00 0.00 0.00 11 945.9
20260510031514 96 112 0.9 2.6 0.00 0.00 0.00 11 945.6
20260510030018 98 135 0.0 4.3 0.00 0.00 0.00 10 945.4
20260510024512 98 174 0.9 4.3 0.00 0.00 0.00 10 945.1
20260510023012 99 157 2.6 7.8 0.00 0.00 0.00 10 945.0
20260510021511 101 206 3.5 6.1 0.00 0.00 0.00 9 944.9
20260510020011 102 181 2.6 7.0 0.00 0.00 0.00 9 944.8
20260510014510 102 246 3.5 7.8 0.00 0.00 0.00 9 944.8
20260510013009 102 205 6.1 11.3 0.00 0.00 0.00 9 944.7
20260510011509 103 193 3.5 8.7 0.00 0.00 0.00 9 944.8
20260510010007 103 226 6.1 9.6 0.00 0.00 0.00 9 944.9
20260510004507 103 146 6.1 13.9 0.00 0.00 0.00 9 944.9
20260510003018 103 215 4.3 13.9 0.00 0.00 0.00 9 944.9
20260510001505 103 218 8.7 13.0 0.00 0.00 0.00 9 944.8
20260510000004 103 207 0.9 9.6 0.00 0.00 0.00 9 944.9
20260509234503 103 203 8.7 13.0 0.00 0.00 0.00 9 945.0
20260509233002 103 207 3.5 10.4 0.00 0.00 0.00 9 945.1
20260509231605 103 150 3.5 8.7 0.00 0.00 0.00 10 945.0
20260509224601 103 137 9.6 18.2 0.00 0.00 0.00 10 945.6
20260509223056 103 199 7.0 13.9 0.00 0.00 0.00 9 945.8
20260509221552 103 200 3.5 6.1 0.00 0.00 0.00 9 946.0
20260509220050 102 181 0.9 14.8 0.00 0.00 0.00 9 946.3
20260509214548 103 195 0.0 7.0 0.00 0.00 0.00 9 946.5
20260509213057 102 215 8.7 13.9 0.00 0.00 0.00 9 946.8
20260509211542 102 190 6.1 13.9 0.00 0.00 0.00 9 947.0
20260509210053 101 255 5.2 11.3 0.00 0.00 0.00 9 947.2
20260509204541 100 7.8 13.9 0.00 0.00 0.00 10 947.4
20260509203040 101 3.5 12.2 0.00 0.00 0.00 10 947.5
20260509201535 100 7.8 12.2 0.00 0.00 0.00 12 947.7
20260509200033 99 262 2.6 12.2 0.00 0.00 0.00 13 947.9
20260509194532 99 4.3 10.4 0.00 0.00 0.00 13 948.1
20260509193030 98 240 5.2 13.0 0.00 0.00 0.00 13 948.3
20260509191528 97 219 7.0 10.4 0.00 0.00 0.00 13 948.5
20260509190026 97 212 4.3 10.4 0.00 0.00 0.00 13 948.7
20260509184524 96 210 5.2 8.7 0.00 0.00 0.00 14 948.8
20260509183021 94 200 5.2 9.6 0.00 0.00 0.00 14 948.9
20260509181519 94 209 2.6 7.8 0.00 0.00 0.00 15 949.1
20260509180017 94 236 2.6 7.0 0.00 0.00 0.00 15 949.2
20260509174514 92 210 1.7 7.0 0.00 0.00 0.00 16 949.3
20260509173011 91 207 2.6 7.8 0.00 0.00 0.00 16 949.3
20260509171511 90 289 0.9 5.2 0.00 0.00 0.00 16 949.4
20260509170013 90 2.6 6.1 0.00 0.00 0.00 16 949.4
20260509164505 89 237 0.9 4.3 0.00 0.00 0.00 17 949.4
20260509163004 88 186 0.9 3.5 0.00 0.00 0.00 17 949.4
20260509161502 87 0.9 3.5 0.00 0.00 0.00 18 949.5
20260509160100 86 289 0.9 4.3 0.00 0.00 0.00 18 949.5
20260509154614 86 245 2.6 6.1 0.00 0.00 0.00 18 949.4
20260509153104 86 210 2.6 5.2 0.00 0.00 0.00 17 949.3
20260509151557 86 163 0.9 4.3 0.00 0.00 0.00 18 949.4
20260509150055 85 205 2.6 4.3 0.00 0.00 0.00 18 949.3
20260509144559 85 236 0.9 3.5 0.00 0.00 0.00 19 949.2
20260509143055 85 1.7 3.5 0.00 0.00 0.00 20 949.1
20260509141551 85 188 0.0 0.9 0.00 0.00 0.00 20 949.0
20260509134547 81 108 0.0 0.9 0.00 0.00 0.00 21 948.7
20260509133046 79 115 0.0 1.7 0.00 0.00 0.00 21 948.6
20260509131545 78 88 0.9 6.1 0.00 0.00 0.00 21 948.3
20260509130041 77 80 3.5 5.2 0.00 0.00 0.00 21 948.2
20260509124541 77 77 1.7 4.3 0.00 0.00 0.00 21 948.1
20260509123037 78 85 2.6 4.3 0.00 0.00 0.00 20 947.9
20260509121535 79 0.0 0.9 0.00 0.00 0.00 20 947.7
20260509120037 80 75 0.0 1.7 0.00 0.00 0.00 19 947.6
20260509114533 81 86 2.6 6.1 0.00 0.00 0.00 18 947.5
20260509113028 81 72 1.7 4.3 0.00 0.00 0.00 18 947.5
20260509111528 81 91 0.9 2.6 0.00 0.00 0.00 18 947.5
20260509110027 82 108 0.0 2.6 0.00 0.00 0.00 18 947.4
20260509104527 82 129 1.7 5.2 0.00 0.00 0.00 18 947.3
20260509103024 81 100 2.6 5.2 0.00 0.00 0.00 18 947.3
20260509101523 82 70 2.6 5.2 0.00 0.00 0.00 18 947.2
20260509100021 82 2.6 5.2 0.00 0.00 0.00 17 947.4
20260509094526 83 81 0.9 4.3 0.00 0.00 0.00 17 947.5
20260509093020 83 88 2.6 4.3 0.00 0.00 0.00 16 947.6
20260509091518 84 108 0.0 3.5 0.00 0.00 0.00 16 947.6
20260509090015 84 86 0.0 4.3 0.00 0.00 0.00 16 947.5
20260509084513 87 83 3.5 6.1 0.00 0.00 0.00 15 947.4
20260509083013 87 110 3.5 8.7 0.00 0.00 0.00 15 947.4
20260509081514 86 98 4.3 7.8 0.00 0.00 0.00 15 947.4
20260509080007 87 110 5.2 8.7 0.00 0.00 0.00 15 947.4
20260509074507 87 110 6.1 10.4 0.00 0.00 0.00 14 947.4
20260509073015 88 113 2.6 5.2 0.00 0.00 0.00 13 947.4